Data supplied by UK-AIR on 31/3/2022
All Data GMT hour ending 
Status: R =Ratified P=Provisional,P*=As supplied
,,London Teddington Bushy Park,,,,,,,,,,,,,,,,,,,,,,,
Date,time,"PM<sub>10</sub> particulate matter (Hourly measured)",status,unit,"PM<sub>2.5</sub> particulate matter (Hourly measured)",status,unit
 
01-01-2021,01:00,35.275,R,ugm-3 (FIDAS),31.085,R,ugm-3 (Ref.eq)
01-01-2021,02:00,32.175,R,ugm-3 (FIDAS),28.585,R,ugm-3 (Ref.eq)
01-01-2021,03:00,27.175,R,ugm-3 (FIDAS),24.481,R,ugm-3 (Ref.eq)
01-01-2021,04:00,30.150,R,ugm-3 (FIDAS),26.557,R,ugm-3 (Ref.eq)
01-01-2021,05:00,22.675,R,ugm-3 (FIDAS),20.660,R,ugm-3 (Ref.eq)
01-01-2021,06:00,17.900,R,ugm-3 (FIDAS),16.580,R,ugm-3 (Ref.eq)
01-01-2021,07:00,17.900,R,ugm-3 (FIDAS),16.722,R,ugm-3 (Ref.eq)
01-01-2021,08:00,18.775,R,ugm-3 (FIDAS),17.335,R,ugm-3 (Ref.eq)
01-01-2021,09:00,20.225,R,ugm-3 (FIDAS),18.726,R,ugm-3 (Ref.eq)
01-01-2021,10:00,22.325,R,ugm-3 (FIDAS),20.354,R,ugm-3 (Ref.eq)
01-01-2021,11:00,24.800,R,ugm-3 (FIDAS),22.807,R,ugm-3 (Ref.eq)
01-01-2021,12:00,28.225,R,ugm-3 (FIDAS),25.377,R,ugm-3 (Ref.eq)
01-01-2021,13:00,30.625,R,ugm-3 (FIDAS),27.877,R,ugm-3 (Ref.eq)
01-01-2021,14:00,33.025,R,ugm-3 (FIDAS),29.906,R,ugm-3 (Ref.eq)
01-01-2021,15:00,33.500,R,ugm-3 (FIDAS),30.094,R,ugm-3 (Ref.eq)
01-01-2021,16:00,33.225,R,ugm-3 (FIDAS),29.811,R,ugm-3 (Ref.eq)
01-01-2021,17:00,32.150,R,ugm-3 (FIDAS),28.962,R,ugm-3 (Ref.eq)
01-01-2021,18:00,30.050,R,ugm-3 (FIDAS),27.170,R,ugm-3 (Ref.eq)
01-01-2021,19:00,26.350,R,ugm-3 (FIDAS),23.326,R,ugm-3 (Ref.eq)
01-01-2021,20:00,24.075,R,ugm-3 (FIDAS),21.227,R,ugm-3 (Ref.eq)
01-01-2021,21:00,23.875,R,ugm-3 (FIDAS),20.543,R,ugm-3 (Ref.eq)
01-01-2021,22:00,21.525,R,ugm-3 (FIDAS),17.948,R,ugm-3 (Ref.eq)
01-01-2021,23:00,16.325,R,ugm-3 (FIDAS),12.618,R,ugm-3 (Ref.eq)
01-01-2021,24:00,12.275,R,ugm-3 (FIDAS),9.576,R,ugm-3 (Ref.eq)
02-01-2021,01:00,10.800,R,ugm-3 (FIDAS),8.679,R,ugm-3 (Ref.eq)
02-01-2021,02:00,9.100,R,ugm-3 (FIDAS),7.476,R,ugm-3 (Ref.eq)
02-01-2021,03:00,9.750,R,ugm-3 (FIDAS),7.830,R,ugm-3 (Ref.eq)
02-01-2021,04:00,9.250,R,ugm-3 (FIDAS),7.288,R,ugm-3 (Ref.eq)
02-01-2021,05:00,10.250,R,ugm-3 (FIDAS),7.736,R,ugm-3 (Ref.eq)
02-01-2021,06:00,10.300,R,ugm-3 (FIDAS),6.863,R,ugm-3 (Ref.eq)
02-01-2021,07:00,8.375,R,ugm-3 (FIDAS),5.071,R,ugm-3 (Ref.eq)
02-01-2021,08:00,8.850,R,ugm-3 (FIDAS),5.142,R,ugm-3 (Ref.eq)
02-01-2021,09:00,8.525,R,ugm-3 (FIDAS),5.991,R,ugm-3 (Ref.eq)
02-01-2021,10:00,7.000,R,ugm-3 (FIDAS),5.283,R,ugm-3 (Ref.eq)
02-01-2021,11:00,6.850,R,ugm-3 (FIDAS),5.212,R,ugm-3 (Ref.eq)
02-01-2021,12:00,5.975,R,ugm-3 (FIDAS),4.151,R,ugm-3 (Ref.eq)
02-01-2021,13:00,5.725,R,ugm-3 (FIDAS),4.387,R,ugm-3 (Ref.eq)
02-01-2021,14:00,4.150,R,ugm-3 (FIDAS),2.901,R,ugm-3 (Ref.eq)
02-01-2021,15:00,5.875,R,ugm-3 (FIDAS),4.434,R,ugm-3 (Ref.eq)
02-01-2021,16:00,6.700,R,ugm-3 (FIDAS),5.236,R,ugm-3 (Ref.eq)
02-01-2021,17:00,10.425,R,ugm-3 (FIDAS),8.538,R,ugm-3 (Ref.eq)
02-01-2021,18:00,15.600,R,ugm-3 (FIDAS),12.854,R,ugm-3 (Ref.eq)
02-01-2021,19:00,14.250,R,ugm-3 (FIDAS),11.722,R,ugm-3 (Ref.eq)
02-01-2021,20:00,17.275,R,ugm-3 (FIDAS),14.528,R,ugm-3 (Ref.eq)
02-01-2021,21:00,15.550,R,ugm-3 (FIDAS),12.995,R,ugm-3 (Ref.eq)
02-01-2021,22:00,16.975,R,ugm-3 (FIDAS),14.599,R,ugm-3 (Ref.eq)
02-01-2021,23:00,17.150,R,ugm-3 (FIDAS),14.835,R,ugm-3 (Ref.eq)
02-01-2021,24:00,17.125,R,ugm-3 (FIDAS),15.260,R,ugm-3 (Ref.eq)
03-01-2021,01:00,16.400,R,ugm-3 (FIDAS),14.741,R,ugm-3 (Ref.eq)
03-01-2021,02:00,13.825,R,ugm-3 (FIDAS),12.406,R,ugm-3 (Ref.eq)
03-01-2021,03:00,10.025,R,ugm-3 (FIDAS),9.293,R,ugm-3 (Ref.eq)
03-01-2021,04:00,6.675,R,ugm-3 (FIDAS),6.156,R,ugm-3 (Ref.eq)
03-01-2021,05:00,5.825,R,ugm-3 (FIDAS),5.401,R,ugm-3 (Ref.eq)
03-01-2021,06:00,8.400,R,ugm-3 (FIDAS),7.500,R,ugm-3 (Ref.eq)
03-01-2021,07:00,10.925,R,ugm-3 (FIDAS),9.859,R,ugm-3 (Ref.eq)
03-01-2021,08:00,10.325,R,ugm-3 (FIDAS),9.057,R,ugm-3 (Ref.eq)
03-01-2021,09:00,11.100,R,ugm-3 (FIDAS),9.741,R,ugm-3 (Ref.eq)
03-01-2021,10:00,10.075,R,ugm-3 (FIDAS),8.467,R,ugm-3 (Ref.eq)
03-01-2021,11:00,7.700,R,ugm-3 (FIDAS),6.109,R,ugm-3 (Ref.eq)
03-01-2021,12:00,7.550,R,ugm-3 (FIDAS),6.038,R,ugm-3 (Ref.eq)
03-01-2021,13:00,7.625,R,ugm-3 (FIDAS),6.156,R,ugm-3 (Ref.eq)
03-01-2021,14:00,7.225,R,ugm-3 (FIDAS),5.849,R,ugm-3 (Ref.eq)
03-01-2021,15:00,6.775,R,ugm-3 (FIDAS),5.047,R,ugm-3 (Ref.eq)
03-01-2021,16:00,4.650,R,ugm-3 (FIDAS),3.656,R,ugm-3 (Ref.eq)
03-01-2021,17:00,7.100,R,ugm-3 (FIDAS),5.920,R,ugm-3 (Ref.eq)
03-01-2021,18:00,8.875,R,ugm-3 (FIDAS),7.665,R,ugm-3 (Ref.eq)
03-01-2021,19:00,10.550,R,ugm-3 (FIDAS),9.222,R,ugm-3 (Ref.eq)
03-01-2021,20:00,12.475,R,ugm-3 (FIDAS),10.778,R,ugm-3 (Ref.eq)
03-01-2021,21:00,13.125,R,ugm-3 (FIDAS),11.533,R,ugm-3 (Ref.eq)
03-01-2021,22:00,13.225,R,ugm-3 (FIDAS),11.274,R,ugm-3 (Ref.eq)
03-01-2021,23:00,11.625,R,ugm-3 (FIDAS),9.222,R,ugm-3 (Ref.eq)
03-01-2021,24:00,10.150,R,ugm-3 (FIDAS),7.783,R,ugm-3 (Ref.eq)
04-01-2021,01:00,7.825,R,ugm-3 (FIDAS),6.156,R,ugm-3 (Ref.eq)
04-01-2021,02:00,6.575,R,ugm-3 (FIDAS),4.906,R,ugm-3 (Ref.eq)
04-01-2021,03:00,7.625,R,ugm-3 (FIDAS),5.212,R,ugm-3 (Ref.eq)
04-01-2021,04:00,7.925,R,ugm-3 (FIDAS),4.976,R,ugm-3 (Ref.eq)
04-01-2021,05:00,6.700,R,ugm-3 (FIDAS),4.104,R,ugm-3 (Ref.eq)
04-01-2021,06:00,6.550,R,ugm-3 (FIDAS),3.609,R,ugm-3 (Ref.eq)
04-01-2021,07:00,6.225,R,ugm-3 (FIDAS),3.656,R,ugm-3 (Ref.eq)
04-01-2021,08:00,6.000,R,ugm-3 (FIDAS),3.609,R,ugm-3 (Ref.eq)
04-01-2021,09:00,5.625,R,ugm-3 (FIDAS),3.302,R,ugm-3 (Ref.eq)
04-01-2021,10:00,5.225,R,ugm-3 (FIDAS),3.113,R,ugm-3 (Ref.eq)
04-01-2021,11:00,5.375,R,ugm-3 (FIDAS),3.208,R,ugm-3 (Ref.eq)
04-01-2021,12:00,4.750,R,ugm-3 (FIDAS),2.925,R,ugm-3 (Ref.eq)
04-01-2021,13:00,8.025,R,ugm-3 (FIDAS),4.859,R,ugm-3 (Ref.eq)
04-01-2021,14:00,8.250,R,ugm-3 (FIDAS),4.929,R,ugm-3 (Ref.eq)
04-01-2021,15:00,5.675,R,ugm-3 (FIDAS),3.302,R,ugm-3 (Ref.eq)
04-01-2021,16:00,5.675,R,ugm-3 (FIDAS),3.302,R,ugm-3 (Ref.eq)
04-01-2021,17:00,5.300,R,ugm-3 (FIDAS),3.066,R,ugm-3 (Ref.eq)
04-01-2021,18:00,5.775,R,ugm-3 (FIDAS),3.821,R,ugm-3 (Ref.eq)
04-01-2021,19:00,8.025,R,ugm-3 (FIDAS),4.906,R,ugm-3 (Ref.eq)
04-01-2021,20:00,7.575,R,ugm-3 (FIDAS),4.693,R,ugm-3 (Ref.eq)
04-01-2021,21:00,7.375,R,ugm-3 (FIDAS),4.505,R,ugm-3 (Ref.eq)
04-01-2021,22:00,6.725,R,ugm-3 (FIDAS),4.222,R,ugm-3 (Ref.eq)
04-01-2021,23:00,6.350,R,ugm-3 (FIDAS),3.844,R,ugm-3 (Ref.eq)
04-01-2021,24:00,6.250,R,ugm-3 (FIDAS),3.679,R,ugm-3 (Ref.eq)
05-01-2021,01:00,5.275,R,ugm-3 (FIDAS),2.995,R,ugm-3 (Ref.eq)
05-01-2021,02:00,4.975,R,ugm-3 (FIDAS),2.736,R,ugm-3 (Ref.eq)
05-01-2021,03:00,5.000,R,ugm-3 (FIDAS),2.524,R,ugm-3 (Ref.eq)
05-01-2021,04:00,5.300,R,ugm-3 (FIDAS),2.618,R,ugm-3 (Ref.eq)
05-01-2021,05:00,5.350,R,ugm-3 (FIDAS),2.689,R,ugm-3 (Ref.eq)
05-01-2021,06:00,4.900,R,ugm-3 (FIDAS),2.689,R,ugm-3 (Ref.eq)
05-01-2021,07:00,5.850,R,ugm-3 (FIDAS),2.854,R,ugm-3 (Ref.eq)
05-01-2021,08:00,6.075,R,ugm-3 (FIDAS),2.948,R,ugm-3 (Ref.eq)
05-01-2021,09:00,6.075,R,ugm-3 (FIDAS),3.042,R,ugm-3 (Ref.eq)
05-01-2021,10:00,7.475,R,ugm-3 (FIDAS),3.491,R,ugm-3 (Ref.eq)
05-01-2021,11:00,7.025,R,ugm-3 (FIDAS),3.679,R,ugm-3 (Ref.eq)
05-01-2021,12:00,7.000,R,ugm-3 (FIDAS),3.892,R,ugm-3 (Ref.eq)
05-01-2021,13:00,7.575,R,ugm-3 (FIDAS),4.222,R,ugm-3 (Ref.eq)
05-01-2021,14:00,7.875,R,ugm-3 (FIDAS),4.340,R,ugm-3 (Ref.eq)
05-01-2021,15:00,7.775,R,ugm-3 (FIDAS),4.269,R,ugm-3 (Ref.eq)
05-01-2021,16:00,7.950,R,ugm-3 (FIDAS),4.434,R,ugm-3 (Ref.eq)
05-01-2021,17:00,5.825,R,ugm-3 (FIDAS),3.325,R,ugm-3 (Ref.eq)
05-01-2021,18:00,8.075,R,ugm-3 (FIDAS),5.212,R,ugm-3 (Ref.eq)
05-01-2021,19:00,9.575,R,ugm-3 (FIDAS),5.826,R,ugm-3 (Ref.eq)
05-01-2021,20:00,10.525,R,ugm-3 (FIDAS),6.226,R,ugm-3 (Ref.eq)
05-01-2021,21:00,10.925,R,ugm-3 (FIDAS),6.415,R,ugm-3 (Ref.eq)
05-01-2021,22:00,10.125,R,ugm-3 (FIDAS),5.849,R,ugm-3 (Ref.eq)
05-01-2021,23:00,9.375,R,ugm-3 (FIDAS),5.613,R,ugm-3 (Ref.eq)
05-01-2021,24:00,7.675,R,ugm-3 (FIDAS),5.236,R,ugm-3 (Ref.eq)
06-01-2021,01:00,7.600,R,ugm-3 (FIDAS),4.906,R,ugm-3 (Ref.eq)
06-01-2021,02:00,7.125,R,ugm-3 (FIDAS),4.481,R,ugm-3 (Ref.eq)
06-01-2021,03:00,7.250,R,ugm-3 (FIDAS),4.245,R,ugm-3 (Ref.eq)
06-01-2021,04:00,5.375,R,ugm-3 (FIDAS),3.585,R,ugm-3 (Ref.eq)
06-01-2021,05:00,4.750,R,ugm-3 (FIDAS),3.325,R,ugm-3 (Ref.eq)
06-01-2021,06:00,6.000,R,ugm-3 (FIDAS),4.198,R,ugm-3 (Ref.eq)
06-01-2021,07:00,6.800,R,ugm-3 (FIDAS),4.929,R,ugm-3 (Ref.eq)
06-01-2021,08:00,6.850,R,ugm-3 (FIDAS),4.906,R,ugm-3 (Ref.eq)
06-01-2021,09:00,8.025,R,ugm-3 (FIDAS),5.660,R,ugm-3 (Ref.eq)
06-01-2021,10:00,8.825,R,ugm-3 (FIDAS),5.755,R,ugm-3 (Ref.eq)
06-01-2021,11:00,10.675,R,ugm-3 (FIDAS),6.415,R,ugm-3 (Ref.eq)
06-01-2021,12:00,9.600,R,ugm-3 (FIDAS),5.590,R,ugm-3 (Ref.eq)
06-01-2021,13:00,7.450,R,ugm-3 (FIDAS),4.552,R,ugm-3 (Ref.eq)
06-01-2021,14:00,9.450,R,ugm-3 (FIDAS),4.835,R,ugm-3 (Ref.eq)
06-01-2021,15:00,8.525,R,ugm-3 (FIDAS),4.717,R,ugm-3 (Ref.eq)
06-01-2021,16:00,9.475,R,ugm-3 (FIDAS),4.811,R,ugm-3 (Ref.eq)
06-01-2021,17:00,11.700,R,ugm-3 (FIDAS),5.967,R,ugm-3 (Ref.eq)
06-01-2021,18:00,11.025,R,ugm-3 (FIDAS),6.462,R,ugm-3 (Ref.eq)
06-01-2021,19:00,12.775,R,ugm-3 (FIDAS),8.821,R,ugm-3 (Ref.eq)
06-01-2021,20:00,14.400,R,ugm-3 (FIDAS),10.401,R,ugm-3 (Ref.eq)
06-01-2021,21:00,15.375,R,ugm-3 (FIDAS),11.486,R,ugm-3 (Ref.eq)
06-01-2021,22:00,13.675,R,ugm-3 (FIDAS),10.920,R,ugm-3 (Ref.eq)
06-01-2021,23:00,14.125,R,ugm-3 (FIDAS),11.392,R,ugm-3 (Ref.eq)
06-01-2021,24:00,14.850,R,ugm-3 (FIDAS),12.170,R,ugm-3 (Ref.eq)
07-01-2021,01:00,14.325,R,ugm-3 (FIDAS),12.005,R,ugm-3 (Ref.eq)
07-01-2021,02:00,13.525,R,ugm-3 (FIDAS),11.368,R,ugm-3 (Ref.eq)
07-01-2021,03:00,15.925,R,ugm-3 (FIDAS),13.278,R,ugm-3 (Ref.eq)
07-01-2021,04:00,17.925,R,ugm-3 (FIDAS),14.434,R,ugm-3 (Ref.eq)
07-01-2021,05:00,16.500,R,ugm-3 (FIDAS),14.269,R,ugm-3 (Ref.eq)
07-01-2021,06:00,16.975,R,ugm-3 (FIDAS),14.222,R,ugm-3 (Ref.eq)
07-01-2021,07:00,17.925,R,ugm-3 (FIDAS),15.472,R,ugm-3 (Ref.eq)
07-01-2021,08:00,17.825,R,ugm-3 (FIDAS),15.896,R,ugm-3 (Ref.eq)
07-01-2021,09:00,18.575,R,ugm-3 (FIDAS),16.109,R,ugm-3 (Ref.eq)
07-01-2021,10:00,20.525,R,ugm-3 (FIDAS),17.359,R,ugm-3 (Ref.eq)
07-01-2021,11:00,18.350,R,ugm-3 (FIDAS),15.778,R,ugm-3 (Ref.eq)
07-01-2021,12:00,17.300,R,ugm-3 (FIDAS),14.882,R,ugm-3 (Ref.eq)
07-01-2021,13:00,17.450,R,ugm-3 (FIDAS),14.859,R,ugm-3 (Ref.eq)
07-01-2021,14:00,20.450,R,ugm-3 (FIDAS),17.406,R,ugm-3 (Ref.eq)
07-01-2021,15:00,22.425,R,ugm-3 (FIDAS),19.599,R,ugm-3 (Ref.eq)
07-01-2021,16:00,21.675,R,ugm-3 (FIDAS),18.585,R,ugm-3 (Ref.eq)
07-01-2021,17:00,26.500,R,ugm-3 (FIDAS),22.099,R,ugm-3 (Ref.eq)
07-01-2021,18:00,26.025,R,ugm-3 (FIDAS),22.618,R,ugm-3 (Ref.eq)
07-01-2021,19:00,25.475,R,ugm-3 (FIDAS),22.264,R,ugm-3 (Ref.eq)
07-01-2021,20:00,23.450,R,ugm-3 (FIDAS),20.802,R,ugm-3 (Ref.eq)
07-01-2021,21:00,22.550,R,ugm-3 (FIDAS),20.543,R,ugm-3 (Ref.eq)
07-01-2021,22:00,21.225,R,ugm-3 (FIDAS),19.293,R,ugm-3 (Ref.eq)
07-01-2021,23:00,23.775,R,ugm-3 (FIDAS),21.698,R,ugm-3 (Ref.eq)
07-01-2021,24:00,25.850,R,ugm-3 (FIDAS),23.373,R,ugm-3 (Ref.eq)
08-01-2021,01:00,26.400,R,ugm-3 (FIDAS),24.198,R,ugm-3 (Ref.eq)
08-01-2021,02:00,24.325,R,ugm-3 (FIDAS),22.335,R,ugm-3 (Ref.eq)
08-01-2021,03:00,23.775,R,ugm-3 (FIDAS),21.816,R,ugm-3 (Ref.eq)
08-01-2021,04:00,23.275,R,ugm-3 (FIDAS),21.439,R,ugm-3 (Ref.eq)
08-01-2021,05:00,22.825,R,ugm-3 (FIDAS),20.802,R,ugm-3 (Ref.eq)
08-01-2021,06:00,22.000,R,ugm-3 (FIDAS),20.307,R,ugm-3 (Ref.eq)
08-01-2021,07:00,21.875,R,ugm-3 (FIDAS),20.094,R,ugm-3 (Ref.eq)
08-01-2021,08:00,22.300,R,ugm-3 (FIDAS),20.377,R,ugm-3 (Ref.eq)
08-01-2021,09:00,24.675,R,ugm-3 (FIDAS),21.910,R,ugm-3 (Ref.eq)
08-01-2021,10:00,28.150,R,ugm-3 (FIDAS),24.245,R,ugm-3 (Ref.eq)
08-01-2021,11:00,31.275,R,ugm-3 (FIDAS),26.203,R,ugm-3 (Ref.eq)
08-01-2021,12:00,30.975,R,ugm-3 (FIDAS),26.557,R,ugm-3 (Ref.eq)
08-01-2021,13:00,40.075,R,ugm-3 (FIDAS),31.368,R,ugm-3 (Ref.eq)
08-01-2021,14:00,45.400,R,ugm-3 (FIDAS),34.811,R,ugm-3 (Ref.eq)
08-01-2021,15:00,36.625,R,ugm-3 (FIDAS),29.175,R,ugm-3 (Ref.eq)
08-01-2021,16:00,32.225,R,ugm-3 (FIDAS),24.977,R,ugm-3 (Ref.eq)
08-01-2021,17:00,29.300,R,ugm-3 (FIDAS),23.679,R,ugm-3 (Ref.eq)
08-01-2021,18:00,26.400,R,ugm-3 (FIDAS),22.241,R,ugm-3 (Ref.eq)
08-01-2021,19:00,24.450,R,ugm-3 (FIDAS),21.769,R,ugm-3 (Ref.eq)
08-01-2021,20:00,27.350,R,ugm-3 (FIDAS),24.646,R,ugm-3 (Ref.eq)
08-01-2021,21:00,26.525,R,ugm-3 (FIDAS),24.222,R,ugm-3 (Ref.eq)
08-01-2021,22:00,24.800,R,ugm-3 (FIDAS),22.807,R,ugm-3 (Ref.eq)
08-01-2021,23:00,27.150,R,ugm-3 (FIDAS),24.953,R,ugm-3 (Ref.eq)
08-01-2021,24:00,26.475,R,ugm-3 (FIDAS),24.269,R,ugm-3 (Ref.eq)
09-01-2021,01:00,26.150,R,ugm-3 (FIDAS),23.939,R,ugm-3 (Ref.eq)
09-01-2021,02:00,19.900,R,ugm-3 (FIDAS),18.326,R,ugm-3 (Ref.eq)
09-01-2021,03:00,15.725,R,ugm-3 (FIDAS),14.222,R,ugm-3 (Ref.eq)
09-01-2021,04:00,14.100,R,ugm-3 (FIDAS),12.618,R,ugm-3 (Ref.eq)
09-01-2021,05:00,15.375,R,ugm-3 (FIDAS),13.750,R,ugm-3 (Ref.eq)
09-01-2021,06:00,12.700,R,ugm-3 (FIDAS),11.415,R,ugm-3 (Ref.eq)
09-01-2021,07:00,12.325,R,ugm-3 (FIDAS),11.085,R,ugm-3 (Ref.eq)
09-01-2021,08:00,12.875,R,ugm-3 (FIDAS),11.179,R,ugm-3 (Ref.eq)
09-01-2021,09:00,14.625,R,ugm-3 (FIDAS),11.981,R,ugm-3 (Ref.eq)
09-01-2021,10:00,15.650,R,ugm-3 (FIDAS),13.019,R,ugm-3 (Ref.eq)
09-01-2021,11:00,17.100,R,ugm-3 (FIDAS),14.458,R,ugm-3 (Ref.eq)
09-01-2021,12:00,18.250,R,ugm-3 (FIDAS),15.047,R,ugm-3 (Ref.eq)
09-01-2021,13:00,22.000,R,ugm-3 (FIDAS),17.995,R,ugm-3 (Ref.eq)
09-01-2021,14:00,25.600,R,ugm-3 (FIDAS),20.283,R,ugm-3 (Ref.eq)
09-01-2021,15:00,27.250,R,ugm-3 (FIDAS),22.547,R,ugm-3 (Ref.eq)
09-01-2021,16:00,31.475,R,ugm-3 (FIDAS),25.637,R,ugm-3 (Ref.eq)
09-01-2021,17:00,25.400,R,ugm-3 (FIDAS),21.321,R,ugm-3 (Ref.eq)
09-01-2021,18:00,24.325,R,ugm-3 (FIDAS),21.203,R,ugm-3 (Ref.eq)
09-01-2021,19:00,31.375,R,ugm-3 (FIDAS),27.406,R,ugm-3 (Ref.eq)
09-01-2021,20:00,35.625,R,ugm-3 (FIDAS),32.925,R,ugm-3 (Ref.eq)
09-01-2021,21:00,23.475,R,ugm-3 (FIDAS),21.745,R,ugm-3 (Ref.eq)
09-01-2021,22:00,18.350,R,ugm-3 (FIDAS),17.076,R,ugm-3 (Ref.eq)
09-01-2021,23:00,16.000,R,ugm-3 (FIDAS),14.929,R,ugm-3 (Ref.eq)
09-01-2021,24:00,15.350,R,ugm-3 (FIDAS),14.387,R,ugm-3 (Ref.eq)
10-01-2021,01:00,16.575,R,ugm-3 (FIDAS),15.495,R,ugm-3 (Ref.eq)
10-01-2021,02:00,15.125,R,ugm-3 (FIDAS),13.962,R,ugm-3 (Ref.eq)
10-01-2021,03:00,14.200,R,ugm-3 (FIDAS),13.302,R,ugm-3 (Ref.eq)
10-01-2021,04:00,11.950,R,ugm-3 (FIDAS),11.179,R,ugm-3 (Ref.eq)
10-01-2021,05:00,9.700,R,ugm-3 (FIDAS),9.057,R,ugm-3 (Ref.eq)
10-01-2021,06:00,9.900,R,ugm-3 (FIDAS),9.340,R,ugm-3 (Ref.eq)
10-01-2021,07:00,11.925,R,ugm-3 (FIDAS),11.132,R,ugm-3 (Ref.eq)
10-01-2021,08:00,12.000,R,ugm-3 (FIDAS),11.179,R,ugm-3 (Ref.eq)
10-01-2021,09:00,12.350,R,ugm-3 (FIDAS),11.415,R,ugm-3 (Ref.eq)
10-01-2021,10:00,16.075,R,ugm-3 (FIDAS),14.906,R,ugm-3 (Ref.eq)
10-01-2021,11:00,14.950,R,ugm-3 (FIDAS),13.844,R,ugm-3 (Ref.eq)
10-01-2021,12:00,17.650,R,ugm-3 (FIDAS),16.179,R,ugm-3 (Ref.eq)
10-01-2021,13:00,19.075,R,ugm-3 (FIDAS),17.335,R,ugm-3 (Ref.eq)
10-01-2021,14:00,20.400,R,ugm-3 (FIDAS),18.514,R,ugm-3 (Ref.eq)
10-01-2021,15:00,21.275,R,ugm-3 (FIDAS),19.057,R,ugm-3 (Ref.eq)
10-01-2021,16:00,20.425,R,ugm-3 (FIDAS),18.090,R,ugm-3 (Ref.eq)
10-01-2021,17:00,23.150,R,ugm-3 (FIDAS),20.472,R,ugm-3 (Ref.eq)
10-01-2021,18:00,23.750,R,ugm-3 (FIDAS),21.344,R,ugm-3 (Ref.eq)
10-01-2021,19:00,26.200,R,ugm-3 (FIDAS),23.821,R,ugm-3 (Ref.eq)
10-01-2021,20:00,31.475,R,ugm-3 (FIDAS),28.373,R,ugm-3 (Ref.eq)
10-01-2021,21:00,27.200,R,ugm-3 (FIDAS),24.929,R,ugm-3 (Ref.eq)
10-01-2021,22:00,19.450,R,ugm-3 (FIDAS),17.877,R,ugm-3 (Ref.eq)
10-01-2021,23:00,19.025,R,ugm-3 (FIDAS),17.429,R,ugm-3 (Ref.eq)
10-01-2021,24:00,18.425,R,ugm-3 (FIDAS),16.958,R,ugm-3 (Ref.eq)
11-01-2021,01:00,20.275,R,ugm-3 (FIDAS),18.632,R,ugm-3 (Ref.eq)
11-01-2021,02:00,21.150,R,ugm-3 (FIDAS),19.340,R,ugm-3 (Ref.eq)
11-01-2021,03:00,21.100,R,ugm-3 (FIDAS),18.892,R,ugm-3 (Ref.eq)
11-01-2021,04:00,17.275,R,ugm-3 (FIDAS),15.260,R,ugm-3 (Ref.eq)
11-01-2021,05:00,11.200,R,ugm-3 (FIDAS),9.811,R,ugm-3 (Ref.eq)
11-01-2021,06:00,6.975,R,ugm-3 (FIDAS),5.943,R,ugm-3 (Ref.eq)
11-01-2021,07:00,6.500,R,ugm-3 (FIDAS),5.189,R,ugm-3 (Ref.eq)
11-01-2021,08:00,3.825,R,ugm-3 (FIDAS),2.877,R,ugm-3 (Ref.eq)
11-01-2021,09:00,3.650,R,ugm-3 (FIDAS),2.217,R,ugm-3 (Ref.eq)
11-01-2021,10:00,5.250,R,ugm-3 (FIDAS),2.783,R,ugm-3 (Ref.eq)
11-01-2021,11:00,7.175,R,ugm-3 (FIDAS),3.208,R,ugm-3 (Ref.eq)
11-01-2021,12:00,6.275,R,ugm-3 (FIDAS),3.349,R,ugm-3 (Ref.eq)
11-01-2021,13:00,5.900,R,ugm-3 (FIDAS),2.995,R,ugm-3 (Ref.eq)
11-01-2021,14:00,4.750,R,ugm-3 (FIDAS),2.665,R,ugm-3 (Ref.eq)
11-01-2021,15:00,3.325,R,ugm-3 (FIDAS),1.745,R,ugm-3 (Ref.eq)
11-01-2021,16:00,3.250,R,ugm-3 (FIDAS),1.604,R,ugm-3 (Ref.eq)
11-01-2021,17:00,7.650,R,ugm-3 (FIDAS),5.684,R,ugm-3 (Ref.eq)
11-01-2021,18:00,4.775,R,ugm-3 (FIDAS),3.278,R,ugm-3 (Ref.eq)
11-01-2021,19:00,5.000,R,ugm-3 (FIDAS),3.443,R,ugm-3 (Ref.eq)
11-01-2021,20:00,4.275,R,ugm-3 (FIDAS),2.901,R,ugm-3 (Ref.eq)
11-01-2021,21:00,4.075,R,ugm-3 (FIDAS),2.783,R,ugm-3 (Ref.eq)
11-01-2021,22:00,3.500,R,ugm-3 (FIDAS),2.382,R,ugm-3 (Ref.eq)
11-01-2021,23:00,3.125,R,ugm-3 (FIDAS),2.005,R,ugm-3 (Ref.eq)
11-01-2021,24:00,1.900,R,ugm-3 (FIDAS),1.274,R,ugm-3 (Ref.eq)
12-01-2021,01:00,1.450,R,ugm-3 (FIDAS),0.873,R,ugm-3 (Ref.eq)
12-01-2021,02:00,0.825,R,ugm-3 (FIDAS),0.566,R,ugm-3 (Ref.eq)
12-01-2021,03:00,1.225,R,ugm-3 (FIDAS),0.708,R,ugm-3 (Ref.eq)
12-01-2021,04:00,1.025,R,ugm-3 (FIDAS),0.425,R,ugm-3 (Ref.eq)
12-01-2021,05:00,1.225,R,ugm-3 (FIDAS),0.660,R,ugm-3 (Ref.eq)
12-01-2021,06:00,1.125,R,ugm-3 (FIDAS),0.684,R,ugm-3 (Ref.eq)
12-01-2021,07:00,1.625,R,ugm-3 (FIDAS),0.896,R,ugm-3 (Ref.eq)
12-01-2021,08:00,2.325,R,ugm-3 (FIDAS),0.873,R,ugm-3 (Ref.eq)
12-01-2021,09:00,4.300,R,ugm-3 (FIDAS),1.462,R,ugm-3 (Ref.eq)
12-01-2021,10:00,4.175,R,ugm-3 (FIDAS),1.792,R,ugm-3 (Ref.eq)
12-01-2021,11:00,5.600,R,ugm-3 (FIDAS),3.302,R,ugm-3 (Ref.eq)
12-01-2021,12:00,9.325,R,ugm-3 (FIDAS),5.448,R,ugm-3 (Ref.eq)
12-01-2021,13:00,7.900,R,ugm-3 (FIDAS),4.340,R,ugm-3 (Ref.eq)
12-01-2021,14:00,5.700,R,ugm-3 (FIDAS),3.939,R,ugm-3 (Ref.eq)
12-01-2021,15:00,5.850,R,ugm-3 (FIDAS),3.821,R,ugm-3 (Ref.eq)
12-01-2021,16:00,5.875,R,ugm-3 (FIDAS),3.915,R,ugm-3 (Ref.eq)
12-01-2021,17:00,5.775,R,ugm-3 (FIDAS),4.104,R,ugm-3 (Ref.eq)
12-01-2021,18:00,8.325,R,ugm-3 (FIDAS),5.684,R,ugm-3 (Ref.eq)
12-01-2021,19:00,12.475,R,ugm-3 (FIDAS),9.410,R,ugm-3 (Ref.eq)
12-01-2021,20:00,19.050,R,ugm-3 (FIDAS),12.005,R,ugm-3 (Ref.eq)
12-01-2021,21:00,16.675,R,ugm-3 (FIDAS),11.392,R,ugm-3 (Ref.eq)
12-01-2021,22:00,17.600,R,ugm-3 (FIDAS),14.151,R,ugm-3 (Ref.eq)
12-01-2021,23:00,18.750,R,ugm-3 (FIDAS),15.047,R,ugm-3 (Ref.eq)
12-01-2021,24:00,19.200,R,ugm-3 (FIDAS),16.014,R,ugm-3 (Ref.eq)
13-01-2021,01:00,19.450,R,ugm-3 (FIDAS),17.099,R,ugm-3 (Ref.eq)
13-01-2021,02:00,16.750,R,ugm-3 (FIDAS),14.906,R,ugm-3 (Ref.eq)
13-01-2021,03:00,16.525,R,ugm-3 (FIDAS),14.410,R,ugm-3 (Ref.eq)
13-01-2021,04:00,17.675,R,ugm-3 (FIDAS),14.835,R,ugm-3 (Ref.eq)
13-01-2021,05:00,15.975,R,ugm-3 (FIDAS),13.514,R,ugm-3 (Ref.eq)
13-01-2021,06:00,13.575,R,ugm-3 (FIDAS),11.604,R,ugm-3 (Ref.eq)
13-01-2021,07:00,14.050,R,ugm-3 (FIDAS),12.028,R,ugm-3 (Ref.eq)
13-01-2021,08:00,13.825,R,ugm-3 (FIDAS),11.745,R,ugm-3 (Ref.eq)
13-01-2021,09:00,13.800,R,ugm-3 (FIDAS),11.533,R,ugm-3 (Ref.eq)
13-01-2021,10:00,13.625,R,ugm-3 (FIDAS),11.368,R,ugm-3 (Ref.eq)
13-01-2021,11:00,14.575,R,ugm-3 (FIDAS),11.604,R,ugm-3 (Ref.eq)
13-01-2021,12:00,10.075,R,ugm-3 (FIDAS),8.514,R,ugm-3 (Ref.eq)
13-01-2021,13:00,9.200,R,ugm-3 (FIDAS),7.335,R,ugm-3 (Ref.eq)
13-01-2021,14:00,6.650,R,ugm-3 (FIDAS),4.599,R,ugm-3 (Ref.eq)
13-01-2021,15:00,6.700,R,ugm-3 (FIDAS),4.882,R,ugm-3 (Ref.eq)
13-01-2021,16:00,7.025,R,ugm-3 (FIDAS),5.259,R,ugm-3 (Ref.eq)
13-01-2021,17:00,9.700,R,ugm-3 (FIDAS),7.099,R,ugm-3 (Ref.eq)
13-01-2021,18:00,10.525,R,ugm-3 (FIDAS),8.090,R,ugm-3 (Ref.eq)
13-01-2021,19:00,7.525,R,ugm-3 (FIDAS),5.967,R,ugm-3 (Ref.eq)
13-01-2021,20:00,7.950,R,ugm-3 (FIDAS),6.014,R,ugm-3 (Ref.eq)
13-01-2021,21:00,7.775,R,ugm-3 (FIDAS),5.377,R,ugm-3 (Ref.eq)
13-01-2021,22:00,5.875,R,ugm-3 (FIDAS),4.104,R,ugm-3 (Ref.eq)
13-01-2021,23:00,3.500,R,ugm-3 (FIDAS),2.500,R,ugm-3 (Ref.eq)
13-01-2021,24:00,2.150,R,ugm-3 (FIDAS),1.321,R,ugm-3 (Ref.eq)
14-01-2021,01:00,2.800,R,ugm-3 (FIDAS),1.675,R,ugm-3 (Ref.eq)
14-01-2021,02:00,3.550,R,ugm-3 (FIDAS),2.028,R,ugm-3 (Ref.eq)
14-01-2021,03:00,3.900,R,ugm-3 (FIDAS),2.052,R,ugm-3 (Ref.eq)
14-01-2021,04:00,4.700,R,ugm-3 (FIDAS),2.005,R,ugm-3 (Ref.eq)
14-01-2021,05:00,4.075,R,ugm-3 (FIDAS),1.863,R,ugm-3 (Ref.eq)
14-01-2021,06:00,3.575,R,ugm-3 (FIDAS),1.910,R,ugm-3 (Ref.eq)
14-01-2021,07:00,4.725,R,ugm-3 (FIDAS),2.665,R,ugm-3 (Ref.eq)
14-01-2021,08:00,4.600,R,ugm-3 (FIDAS),3.184,R,ugm-3 (Ref.eq)
14-01-2021,09:00,3.200,R,ugm-3 (FIDAS),2.359,R,ugm-3 (Ref.eq)
14-01-2021,10:00,4.175,R,ugm-3 (FIDAS),3.090,R,ugm-3 (Ref.eq)
14-01-2021,11:00,3.500,R,ugm-3 (FIDAS),2.665,R,ugm-3 (Ref.eq)
14-01-2021,12:00,2.475,R,ugm-3 (FIDAS),1.651,R,ugm-3 (Ref.eq)
14-01-2021,13:00,4.225,R,ugm-3 (FIDAS),2.665,R,ugm-3 (Ref.eq)
14-01-2021,14:00,6.375,R,ugm-3 (FIDAS),4.127,R,ugm-3 (Ref.eq)
14-01-2021,15:00,5.575,R,ugm-3 (FIDAS),3.585,R,ugm-3 (Ref.eq)
14-01-2021,16:00,3.550,R,ugm-3 (FIDAS),2.123,R,ugm-3 (Ref.eq)
14-01-2021,17:00,2.975,R,ugm-3 (FIDAS),1.887,R,ugm-3 (Ref.eq)
14-01-2021,18:00,3.000,R,ugm-3 (FIDAS),2.429,R,ugm-3 (Ref.eq)
14-01-2021,19:00,5.825,R,ugm-3 (FIDAS),5.094,R,ugm-3 (Ref.eq)
14-01-2021,20:00,7.825,R,ugm-3 (FIDAS),6.887,R,ugm-3 (Ref.eq)
14-01-2021,21:00,9.425,R,ugm-3 (FIDAS),8.160,R,ugm-3 (Ref.eq)
14-01-2021,22:00,9.800,R,ugm-3 (FIDAS),8.467,R,ugm-3 (Ref.eq)
14-01-2021,23:00,13.000,R,ugm-3 (FIDAS),10.566,R,ugm-3 (Ref.eq)
14-01-2021,24:00,12.950,R,ugm-3 (FIDAS),9.127,R,ugm-3 (Ref.eq)
15-01-2021,01:00,12.700,R,ugm-3 (FIDAS),9.222,R,ugm-3 (Ref.eq)
15-01-2021,02:00,12.625,R,ugm-3 (FIDAS),9.269,R,ugm-3 (Ref.eq)
15-01-2021,03:00,13.050,R,ugm-3 (FIDAS),10.472,R,ugm-3 (Ref.eq)
15-01-2021,04:00,12.825,R,ugm-3 (FIDAS),9.953,R,ugm-3 (Ref.eq)
15-01-2021,05:00,12.850,R,ugm-3 (FIDAS),10.118,R,ugm-3 (Ref.eq)
15-01-2021,06:00,14.550,R,ugm-3 (FIDAS),11.580,R,ugm-3 (Ref.eq)
15-01-2021,07:00,15.525,R,ugm-3 (FIDAS),12.547,R,ugm-3 (Ref.eq)
15-01-2021,08:00,16.375,R,ugm-3 (FIDAS),13.561,R,ugm-3 (Ref.eq)
15-01-2021,09:00,17.600,R,ugm-3 (FIDAS),14.269,R,ugm-3 (Ref.eq)
15-01-2021,10:00,19.625,R,ugm-3 (FIDAS),15.377,R,ugm-3 (Ref.eq)
15-01-2021,11:00,22.725,R,ugm-3 (FIDAS),16.816,R,ugm-3 (Ref.eq)
15-01-2021,12:00,21.100,R,ugm-3 (FIDAS),16.462,R,ugm-3 (Ref.eq)
15-01-2021,13:00,23.850,R,ugm-3 (FIDAS),17.665,R,ugm-3 (Ref.eq)
15-01-2021,14:00,22.575,R,ugm-3 (FIDAS),17.264,R,ugm-3 (Ref.eq)
15-01-2021,15:00,22.775,R,ugm-3 (FIDAS),16.510,R,ugm-3 (Ref.eq)
15-01-2021,16:00,23.000,R,ugm-3 (FIDAS),18.585,R,ugm-3 (Ref.eq)
15-01-2021,17:00,23.200,R,ugm-3 (FIDAS),18.373,R,ugm-3 (Ref.eq)
15-01-2021,18:00,20.150,R,ugm-3 (FIDAS),17.217,R,ugm-3 (Ref.eq)
15-01-2021,19:00,22.275,R,ugm-3 (FIDAS),19.080,R,ugm-3 (Ref.eq)
15-01-2021,20:00,24.225,R,ugm-3 (FIDAS),21.745,R,ugm-3 (Ref.eq)
15-01-2021,21:00,26.250,R,ugm-3 (FIDAS),23.302,R,ugm-3 (Ref.eq)
15-01-2021,22:00,30.775,R,ugm-3 (FIDAS),27.783,R,ugm-3 (Ref.eq)
15-01-2021,23:00,29.075,R,ugm-3 (FIDAS),25.142,R,ugm-3 (Ref.eq)
15-01-2021,24:00,20.950,R,ugm-3 (FIDAS),18.443,R,ugm-3 (Ref.eq)
16-01-2021,01:00,19.625,R,ugm-3 (FIDAS),16.627,R,ugm-3 (Ref.eq)
16-01-2021,02:00,15.900,R,ugm-3 (FIDAS),13.278,R,ugm-3 (Ref.eq)
16-01-2021,03:00,11.100,R,ugm-3 (FIDAS),9.222,R,ugm-3 (Ref.eq)
16-01-2021,04:00,7.675,R,ugm-3 (FIDAS),6.038,R,ugm-3 (Ref.eq)
16-01-2021,05:00,8.250,R,ugm-3 (FIDAS),6.321,R,ugm-3 (Ref.eq)
16-01-2021,06:00,8.725,R,ugm-3 (FIDAS),7.241,R,ugm-3 (Ref.eq)
16-01-2021,07:00,11.850,R,ugm-3 (FIDAS),10.660,R,ugm-3 (Ref.eq)
16-01-2021,08:00,11.175,R,ugm-3 (FIDAS),10.236,R,ugm-3 (Ref.eq)
16-01-2021,09:00,9.825,R,ugm-3 (FIDAS),8.514,R,ugm-3 (Ref.eq)
16-01-2021,10:00,6.475,R,ugm-3 (FIDAS),5.495,R,ugm-3 (Ref.eq)
16-01-2021,11:00,2.500,R,ugm-3 (FIDAS),1.887,R,ugm-3 (Ref.eq)
16-01-2021,12:00,2.150,R,ugm-3 (FIDAS),1.675,R,ugm-3 (Ref.eq)
16-01-2021,13:00,2.825,R,ugm-3 (FIDAS),2.170,R,ugm-3 (Ref.eq)
16-01-2021,14:00,4.675,R,ugm-3 (FIDAS),2.901,R,ugm-3 (Ref.eq)
16-01-2021,15:00,4.950,R,ugm-3 (FIDAS),3.396,R,ugm-3 (Ref.eq)